Weather in Rafaylovo

Russia / Tyumen Oblast     56°26′02″N   65°15′09″E
temp.,
°C
wind,
m/s
gust,
m/s
humid.,
%
clouds,
%
prec.,
mm/h
press.,
hPa
HPBL,
m
15 may, sat
sat1523:00+20sw4114996 0.0 1021159
02:00+17wsw37544 0.0 1021107
05:00+16w345510 0.0 102152
08:00+22w4544100 0.0 1021265
11:00+27w463291 0.0 10201437
14:00+30w682762 0.0 10192569
17:00+30wsw68265 0.0 10173037
20:00+25w5113769 0.0 1016274
16 may, sun
sun1623:00+21w4104769 0.0 1017190
02:00+18w486948 0.5 1018123
05:00+18w37757 0.5 1018135
08:00+22w595656 0.0 1018389
11:00+29wnw7123095 0.0 10171521
14:00+31wnw71122100 0.0 10172784
17:00+31wnw68215 0.0 10173039
20:00+25wsw35365 0.0 101760
17 may, mon
mon1723:00+21w46405 0.0 101788
02:00+19w411455 0.0 1018173
05:00+18w345223 0.0 101859
08:00+24w58445 0.0 1018331
11:00+29w68305 0.0 10172270
14:00+31wsw79235 0.0 10163418
17:00+29w91127100 0.0 10151470
20:00+24wsw4104190 0.0 1014188
18 may, tue
tue1823:00+19w234841 0.3 101528
02:00+18w23582 0.1 101533
05:00+16w336857 0.1 101548
08:00+22wnw4752100 0.0 1014407
11:00+26wnw6837100 0.0 10141863
14:00+28wnw692746 0.0 10123504
17:00+25nnw51034100 0.0 1011953
20:00+20nne48525 0.3 1014260
19 may, wed
wed1923:00+16n386081 0.3 1016179
02:00+14n49745 0.0 1017358
05:00+12n38884 0.0 1019368
08:00+15nne676972 0.0 1021923
11:00+18ne45460 0.0 10221360
14:00+21ne34375 0.0 10221879
17:00+21ene3334100 0.0 10221814
20:00+18ese22515 0.0 102315